Location: ?r?ib?ri
(23.7531°N, 91.1390°E)
Time: 06:52:58
(UTC+00:00)

Daily predictions for brighter satellites

Satellite Brightness Start Highest point End
(mag) Time Altitude Azimuth Time Altitude Azimuth Time Altitude Azimuth
Cosmos 1455 2.9 12:01:52 10° SSE 12:05:08 29° E 12:08:26 10° NNE
Cosmos 2369 3.8 12:00:37 10° S 12:06:10 54° ESE 12:11:42 10° NNE
Cosmos 1992 Rocket 3.9 12:03:35 10° S 12:08:43 68° ESE 12:13:53 10° NNE
Cosmos 1939 Rocket 2.8 12:06:54 10° SSE 12:10:50 57° ENE 12:14:43 10° N
Delta 142 4.2 12:06:46 10° WNW 12:11:15 52° N 12:15:10 19° ENE
Helios 1A Rocket 3.3 12:13:07 10° SE 12:16:59 40° ENE 12:20:51 10° N
H-2A R/B 3.3 12:16:19 18° E 12:18:03 21° ENE 12:22:00 10° NNE
Okean-O 3.0 12:15:16 10° SE 12:19:22 39° ENE 12:23:29 10° N
NOSS 3-3 (A) 4.4 12:17:19 10° SW 12:22:44 56° WNW 12:28:37 10° NNE
NOSS 3-3 (C) 4.4 12:17:22 10° SW 12:22:52 57° WNW 12:28:46 10° NNE
CZ-2C R/B 4.2 12:24:59 16° ESE 12:24:59 16° ESE 12:26:53 10° SE
Atlas Centaur 2 3.4 12:15:31 10° W 12:23:46 62° N 12:29:46 21° ENE
Meteor 2-1 Rocket 4.1 12:21:59 10° S 12:27:30 74° E 12:32:59 10° N
Cosmos 2227 Rocket 2.9 12:25:27 10° N 12:30:24 31° ENE 12:31:56 27° E
OAO 3 Copernicus 4.2 12:25:34 10° WSW 12:30:36 87° NNW 12:33:11 29° ENE
CZ-4 R/B 1.3 12:30:34 10° SSE 12:34:25 55° ENE 12:38:13 10° N
Cosmos 1697 Rocket 3.1 12:29:27 10° SSW 12:34:58 63° WNW 12:40:32 10° N
Elektron 3 3.6 12:31:27 10° NNW 12:35:02 83° ENE 12:36:01 38° SE
Delta 7925 Rocket 4.5 12:31:49 10° SW 12:37:22 34° SSE 12:39:11 27° ESE
IRS-1C Rocket 4.3 12:32:50 10° S 12:38:03 73° WSW 12:43:19 10° NNW
IRS-P2 Rocket 4.4 12:36:33 10° SSE 12:41:44 78° ENE 12:46:58 10° N
Cosmos 2058 4.0 12:43:46 10° N 12:45:56 29° NNE 12:45:56 29° NNE
Cosmos 883 Rocket 4.3 12:44:12 10° S 12:50:20 70° E 12:56:27 10° N
Cosmos 1892 2.8 12:48:50 10° N 12:52:43 77° W 12:56:34 10° S
OAO 3 Rocket 3.6 12:48:13 10° NW 12:52:45 42° NNE 12:52:53 42° NNE
Cosmos 2315 Rocket 3.9 12:47:33 10° S 12:53:38 58° E 12:59:41 10° NNE
S3M 4.5 12:48:42 10° SSW 12:54:40 59° W 13:00:42 10° N
CZ-2D R/B 4.4 12:51:55 10° S 12:55:33 43° W 12:59:12 10° NNW
Cosmos 1980 Rocket 2.2 12:51:52 10° SSW 12:57:30 82° WNW 13:01:42 19° NNE
Hubble Space Telescope 3.0 13:00:26 10° WSW 13:03:18 18° SSW 13:04:43 15° S
CSL-04 Debris 4.0 12:58:01 10° SSE 13:03:22 67° ENE 13:08:45 10° N
SWIFT 4.5 13:06:12 10° WSW 13:09:09 18° SSW 13:09:44 18° S
Cosmos 2297 Rocket 2.1 13:04:40 10° NNW 13:10:20 82° WSW 13:13:52 24° SSE
Cosmos 968 Rocket 3.3 13:06:05 10° NNW 13:10:54 76° NNE 13:10:54 76° NNE
CZ-2C R/B 4.0 13:17:21 10° S 13:23:00 54° W 13:28:38 10° NNW
Milstar 3 2.8 13:17:27 10° WNW 13:24:04 64° N 13:24:45 61° NE
YAOGAN 1 4.0 13:21:00 10° SSW 13:24:57 36° W 13:28:56 10° NNW
SEDSat Delta rocket 4.1 13:22:49 10° SW 13:28:42 61° S 13:28:42 61° S
ASC 2 Rocket 4.0 13:25:24 10° W 13:29:13 56° WSW 13:29:13 56° WSW
H-2A R/B 3.6 13:56:57 33° WSW 13:57:08 33° W 14:01:59 10° NW
Cosmos 2227 Rocket 4.2 14:09:49 10° NW 14:13:56 23° W 14:13:56 23° W
Atlas Centaur 2 3.8 14:06:06 10° WNW 14:12:22 45° NW 14:12:22 45° NW
Cosmos 2082 Rocket 4.3 21:04:07 22° ESE 21:04:13 22° ESE 21:08:22 10° NE
ATLAS 3B R/B 3.4 21:23:36 45° NE 21:23:36 45° NE 21:28:07 10° NNE
ADEOS Rocket 4.3 21:29:47 10° SE 21:34:36 31° ENE 21:39:22 10° NNE
Mugunghwa Rocket 4.3 21:47:02 69° NW 21:47:39 73° N 21:55:04 10° E
CZ-3 R/B 3.7 21:37:02 42° W 21:50:08 81° NNW 21:59:59 10° ENE
Cosmos 292 Rocket 3.7 22:07:29 76° NNE 22:07:48 81° ENE 22:12:37 10° SSE
Cosmos 2142 Rocket 4.4 22:09:46 59° W 22:09:47 59° W 22:16:00 10° S
ATLAS CENTAUR R/B 4.3 22:11:14 10° SSE 22:13:50 16° ESE 22:16:22 10° ENE
ADEOS 3.7 22:09:26 10° NNE 22:14:39 72° ESE 22:19:50 10° S
ERS-2 4.2 22:12:36 10° SE 22:15:41 27° ENE 22:18:47 10° NNE
Palapa 6 Rocket 3.2 22:18:16 51° SSE 22:18:16 51° SSE 22:22:06 10° E
Cosmos 44 Rocket 4.3 22:17:54 13° N 22:22:17 47° ENE 22:27:15 10° SE
EPKM 3.9 22:22:09 42° WNW 22:24:28 79° N 22:50:25 10° E
Cosmos 1833 Rocket 4.3 22:28:30 18° NNW 22:28:30 18° NNW 22:30:19 10° N
Cosmos 2279 Rocket 4.2 22:28:15 24° NW 22:31:31 43° W 22:37:17 10° SSW
H-2A R/B 2.2 22:28:19 10° S 22:32:42 54° W 22:33:43 44° NW
CZ-3A R/B 2.9 22:34:23 20° S 22:34:46 21° SSE 22:37:01 10° E
Delta 128 3.8 22:35:33 43° WSW 22:36:33 53° SSW 22:41:04 10° SE
GOES 2 Rocket 4.0 22:34:46 36° WNW 22:36:55 59° N 22:43:52 10° ENE
CZ-4B R/B 3.7 22:34:18 10° NNE 22:38:20 90° E 22:42:11 10° SSW
ARGOS Delta rocket 4.5 22:33:04 10° NNE 22:38:32 68° E 22:43:56 10° S
Cosmos 1908 3.4 22:39:58 47° W 22:39:58 47° W 22:43:43 10° SSW
CZ-2C R/B 0.9 22:41:02 49° SSW 22:41:02 49° SSW 22:44:10 10° SE
Cosmos 2026 Rocket 4.2 22:36:12 10° S 22:42:30 77° E 22:48:53 10° N
Meteor 1-24 Rocket 3.6 22:37:38 10° SSW 22:43:05 69° W 22:48:45 10° N
ALOS 2.3 22:40:40 10° N 22:45:12 53° WNW 22:49:44 10° SSW
METEOR-M 4.0 22:42:03 10° N 22:47:21 70° WNW 22:52:38 10° SSW
Cosmos 2195 Rocket 4.4 22:41:14 10° S 22:47:29 80° W 22:53:41 10° N
SL-14 R/B 3.7 22:44:06 10° SSW 22:47:45 37° W 22:51:27 10° NNW
Cosmos 2082 Rocket 2.8 22:46:10 26° WSW 22:47:59 32° WNW 22:52:58 10° N
CZ-4B R/B 1.7 22:46:47 10° SSE 22:50:13 69° ENE 22:53:39 10° N
Cosmos 2369 4.3 22:48:47 10° N 22:54:20 58° ENE 22:59:51 10° SSE
Okean 1-7 Rocket 3.7 22:49:47 10° S 22:54:20 82° E 22:58:53 10° N
Cosmos 1300 3.1 22:52:04 10° N 22:55:51 65° E 22:59:36 10° SSE
Cosmos 1656 3.9 22:50:56 10° NNW 22:56:25 50° WSW 23:01:50 10° S
Cosmos 614 Rocket 3.9 22:53:05 10° SSW 22:58:14 71° WNW 23:03:21 10° N
GPS 2-17 Rocket1 4.3 22:57:19 18° WSW 22:59:48 30° SSW 23:03:52 10° SE
Delta 168 4.4 22:59:04 14° SW 23:00:09 15° SSW 23:02:22 10° SSE
deb Chang Zheng 4 4.1 22:57:01 10° N 23:00:53 35° WNW 23:04:47 10° SW
Cosmos 1689 Rocket 4.4 22:59:08 10° SE 23:01:39 26° ENE 23:04:10 10° NNE
Cosmos 2251 Rocket 4.4 22:58:45 10° SW 23:03:15 27° WNW 23:07:47 10° NNW
Cosmos 1892 Rocket 3.7 22:59:54 10° SSW 23:04:02 45° W 23:08:12 10° N
Cosmos 2058 Rocket 4.1 23:02:37 10° N 23:06:57 49° E 23:11:14 10° SSE
SJ-12 4.0 23:05:43 10° N 23:09:42 54° WNW 23:13:40 10° SSW
SL-27 R/B 4.0 23:07:59 10° S 23:11:20 40° E 23:14:44 10° NNE
ATLAS 3B R/B 4.0 23:10:57 14° WNW 23:12:40 16° NW 23:16:25 10° NNW
Cosmos 1484 Rocket 4.2 23:14:17 10° NNW 23:16:41 16° WNW 23:19:03 10° WSW
Cosmos 1023 Rocket 4.4 23:13:33 10° SSW 23:18:39 89° WNW 23:23:44 10° NNE
SKYMED 2 3.9 23:15:06 10° SSE 23:19:24 71° ENE 23:23:42 10° N
ADEOS Rocket 3.9 23:16:01 10° SW 23:20:03 21° W 23:24:03 10° NW
H-2A R/B 3.4 23:16:34 10° NNE 23:20:22 61° E 23:24:12 10° S
Cosmos 1697 Rocket 2.7 23:16:18 10° NNW 23:21:51 60° WSW 23:27:24 10° S
ASTRO F (AKARI) 4.5 23:19:33 10° N 23:22:48 49° WNW 23:25:54 10° SSW
Cosmos 1190 Rocket 4.0 23:18:43 10° SSW 23:23:59 83° WNW 23:29:13 10° NNE
PSLV R/B 4.4 23:20:27 10° SSE 23:24:34 68° ENE 23:28:45 10° N
DELTA 2 R/B (1) 3.7 23:22:25 10° NW 23:28:02 85° NE 23:33:39 10° ESE
Cosmos 1626 Rocket 3.6 23:23:47 10° S 23:28:13 87° W 23:32:41 10° N
Meteor PRIRODA 4.1 23:25:02 10° N 23:28:27 38° WNW 23:31:51 10° SW
Meteor 1-21 Rocket 4.4 23:24:24 10° S 23:30:07 83° E 23:35:59 10° N
Cosmos 1602 Rocket 3.9 23:26:47 10° S 23:31:10 71° E 23:35:34 10° N
Cosmos 2098 Rocket 4.0 23:27:07 10° S 23:33:58 83° W 23:39:37 10° N
Meteor 2-19 Rocket 4.4 23:28:17 10° SSW 23:34:21 71° W 23:40:25 10° N
Spot 2 4.3 23:31:23 10° N 23:36:06 74° WNW 23:41:04 10° SSW
ATLAS CENTAUR Rocket 3.4 23:33:11 10° W 23:36:18 21° SSW 23:39:35 10° SSE
GPS 2-18 Rocket1 4.2 23:34:05 10° WSW 23:37:31 37° S 23:40:55 10° ESE
Geosat 4.4 23:34:42 10° S 23:39:28 45° WSW 23:44:16 10° NW
Cosmos 1703 3.8 23:36:43 10° S 23:40:31 64° E 23:44:21 10° NNE
Mugunghwa Rocket 4.4 23:36:15 10° WNW 23:44:02 82° N 23:50:57 10° E
